Temp
-6 -6 -7 -7 -7 -8 -9 -9 -9 -9 -8 -10 -9 -9 -9 -9 -9 -9 -8 -9 -10 -10 -10 -11 -11 -11 -11 -11 -11 -11 -12 -11 -11 -11 -11 -11 -11 -11 -11 -12 -12 -12 -12 -12
-6 -7 -6 -7 -7 -8 -9 -9 -9 -9 -9 -9 -9 -9 -9 -9 -9 -9 -9 -10 -10 -11 -10 -11 -11 -11 -11 -11 -12 -11 -11 -11 -11 -11 -11 -11 -11 -11 -12 -12 -12 -12 -13 -13
-7 -7 -7 -7 -7 -8 -9 -9 -9 -9 -9 -9 -9 -9 -10 -10 -10 -10 -10 -10 -10 -10 -10 -11 -11 -12 -12 -11 -11 -11 -11 -11 -11 -11 -11 -12 -12 -13 -14 -15 -15 -15 -14 -14
-7 -7 -7 -7 -7 -9 -9 -9 -9 -9 -9 -9 -9 -10 -10 -9 -9 -9 -10 -10 -10 -10 -11 -11 -12 -11 -11 -11 -11 -11 -11 -11 -11 -11 -11 -11 -12 -13 -14 -15 -15 -15 -16 -16
-6 -6 -6 -7 -8 -8 -8 -8 -9 -9 -9 -10 -10 -10 -9 -10 -10 -9 -10 -10 -11 -11 -10 -11 -11 -11 -11 -11 -11 -11 -11 -11 -12 -11 -12 -12 -14 -15 -15 -15 -15 -15 -16 -16
-6 -6 -6 -8 -7 -8 -9 -8 -9 -8 -9 -10 -10 -10 -10 -10 -10 -10 -10 -10 -11 -10 -11 -11 -10 -11 -11 -11 -11 -11 -11 -12 -12 -12 -12 -14 -15 -15 -15 -15 -16 -16 -16 -16
-7 -9 -8 -8 -8 -8 -8 -8 -8 -9 -9 -9 -10 -10 -10 -10 -10 -10 -10 -10 -10 -11 -11 -11 -11 -11 -11 -11 -11 -11 -12 -12 -12 -12 -13 -15 -15 -15 -15 -16 -16 -16 -16 -17
-8 -8 -9 -9 -9 -8 -8 -8 -8 -9 -9 -9 -10 -10 -10 -9 -9 -9 -9 -10 -10 -11 -11 -11 -11 -11 -11 -11 -11 -12 -12 -12 -12 -13 -15 -15 -15 -15 -16 -15 -16 -16 -16 -17
-9 -8 -9 -9 -9 -9 -9 -9 -8 -9 -9 -9 -9 -10 -9 -8 -8 -9 -10 -10 -11 -11 -11 -11 -12 -12 -12 -12 -12 -12 -12 -12 -12 -14 -15 -15 -16 -16 -16 -16 -16 -17 -17 -17
-10 -9 -9 -9 -9 -9 -8 -8 -8 -8 -9 -9 -9 -9 -9 -8 -8 -10 -11 -11 -11 -12 -12 -12 -12 -12 -12 -12 -12 -12 -12 -12 -13 -14 -15 -16 -16 -16 -16 -16 -17 -17 -17 -18
-9 -10 -10 -9 -9 -9 -8 -8 -9 -9 -10 -10 -10 -9 -8 -8 -10 -11 -11 -11 -11 -11 -12 -12 -12 -12 -12 -12 -12 -12 -12 -12 -14 -15 -16 -16 -16 -16 -16 -17 -17 -17 -18 -18
-10 -10 -10 -9 -8 -8 -8 -8 -8 -9 -10 -9 -9 -8 -8 -9 -10 -11 -11 -11 -11 -12 -12 -12 -12 -12 -12 -12 -13 -13 -12 -13 -14 -15 -15 -15 -16 -16 -16 -17 -17 -18 -18 -18
-10 -10 -10 -10 -9 -9 -8 -8 -8 -9 -9 -9 -9 -9 -10 -10 -11 -11 -11 -11 -12 -12 -12 -12 -12 -12 -12 -12 -13 -12 -12 -13 -14 -15 -15 -15 -16 -16 -16 -17 -18 -18 -19 -19
-9 -9 -10 -10 -10 -9 -8 -8 -8 -9 -9 -8 -9 -9 -10 -10 -10 -11 -11 -11 -12 -12 -12 -12 -12 -12 -12 -13 -13 -13 -13 -13 -14 -15 -15 -15 -16 -16 -16 -17 -17 -18 -18 -19
-8 -8 -9 -10 -10 -9 -8 -8 -8 -9 -8 -8 -9 -9 -10 -10 -11 -11 -11 -11 -11 -12 -12 -12 -12 -12 -12 -13 -13 -13 -13 -13 -14 -15 -15 -16 -16 -16 -16 -17 -17 -17 -18 -18
-8 -9 -9 -10 -9 -9 -8 -8 -8 -8 -9 -9 -9 -9 -10 -10 -11 -10 -10 -11 -11 -12 -12 -12 -12 -12 -12 -13 -13 -13 -13 -13 -14 -14 -15 -16 -16 -16 -16 -16 -17 -17 -18 -18
-9 -9 -9 -9 -9 -9 -9 -9 -9 -9 -9 -9 -9 -9 -9 -10 -11 -10 -11 -11 -11 -12 -12 -12 -12 -12 -13 -13 -13 -13 -13 -13 -14 -14 -15 -16 -16 -17 -17 -17 -17 -17 -17 -17
-9 -9 -9 -9 -9 -9 -9 -9 -9 -9 -9 -9 -9 -9 -9 -10 -11 -11 -11 -11 -11 -12 -12 -12 -12 -12 -13 -13 -13 -13 -14 -14 -14 -14 -15 -15 -16 -17 -17 -17 -17 -17 -17 -17
-9 -9 -9 -9 -9 -9 -8 -8 -8 -9 -9 -9 -9 -10 -10 -10 -11 -10 -10 -11 -11 -12 -12 -12 -12 -12 -13 -13 -13 -14 -14 -14 -14 -14 -15 -15 -16 -16 -18 -17 -17 -17 -17 -17
-9 -9 -9 -9 -9 -8 -9 -9 -9 -9 -10 -9 -9 -10 -9 -10 -10 -10 -10 -11 -11 -12 -12 -12 -12 -13 -13 -13 -14 -14 -14 -14 -14 -15 -15 -16 -16 -16 -17 -18 -18 -17 -17 -17
-9 -9 -9 -10 -10 -9 -9 -9 -9 -9 -9 -9 -9 -9 -9 -10 -10 -10 -10 -11 -11 -12 -12 -12 -12 -13 -13 -13 -14 -14 -14 -15 -15 -15 -15 -16 -16 -17 -17 -17 -18 -18 -17 -18
-10 -10 -10 -9 -9 -9 -10 -9 -9 -9 -10 -10 -10 -9 -9 -10 -10 -10 -10 -10 -11 -12 -12 -12 -12 -13 -13 -13 -14 -14 -14 -14 -15 -15 -15 -15 -16 -17 -17 -17 -18 -18 -18 -18
-10 -10 -10 -10 -10 -9 -10 -10 -9 -10 -10 -10 -10 -10 -10 -10 -10 -10 -10 -10 -11 -11 -12 -12 -12 -13 -13 -13 -14 -14 -15 -15 -15 -15 -15 -15 -16 -16 -17 -17 -17 -17 -17 -17
-10 -10 -10 -10 -10 -10 -10 -10 -9 -10 -10 -10 -10 -10 -10 -10 -10 -10 -10 -10 -11 -11 -12 -12 -12 -13 -13 -13 -14 -15 -15 -15 -15 -15 -15 -15 -16 -16 -16 -16 -17 -17 -17 -17
-11 -11 -11 -10 -10 -10 -9 -9 -10 -10 -10 -10 -10 -10 -10 -10 -10 -10 -10 -10 -11 -11 -11 -12 -12 -13 -13 -13 -13 -14 -14 -15 -15 -15 -15 -15 -16 -16 -15 -15 -16 -17 -17 -17
-12 -12 -11 -10 -10 -10 -9 -10 -10 -10 -10 -10 -10 -10 -10 -10 -10 -11 -10 -11 -11 -11 -11 -12 -12 -12 -13 -13 -13 -14 -14 -15 -15 -15 -15 -15 -15 -16 -16 -16 -16 -16 -17 -17
Height
5896 5897 5899 5900 5900 5901 5902 5900 5897 5895 5896 5895 5894 5899 5900 5897 5895 5893 5889 5883 5879 5871 5865 5859 5854 5848 5841 5833 5826 5819 5809 5802 5796 5790 5783 5776 5769 5761 5753 5745 5740 5735 5733 5732
5895 5895 5897 5898 5899 5899 5899 5897 5896 5896 5894 5894 5895 5895 5895 5893 5891 5890 5887 5880 5873 5866 5861 5858 5849 5843 5832 5823 5815 5807 5799 5793 5787 5779 5772 5764 5756 5748 5741 5733 5727 5722 5717 5713
5891 5894 5896 5896 5896 5897 5899 5898 5897 5896 5895 5893 5892 5889 5888 5885 5882 5881 5880 5873 5867 5863 5857 5852 5843 5834 5824 5816 5810 5802 5795 5787 5779 5771 5763 5754 5744 5735 5726 5719 5712 5706 5702 5699
5889 5891 5893 5895 5891 5896 5897 5898 5896 5894 5894 5894 5890 5884 5879 5877 5873 5872 5868 5866 5866 5859 5852 5843 5836 5827 5821 5815 5808 5800 5792 5783 5775 5765 5754 5743 5733 5724 5716 5709 5703 5697 5691 5686
5889 5889 5889 5890 5890 5893 5896 5898 5898 5892 5893 5891 5887 5881 5877 5874 5872 5870 5868 5864 5858 5853 5847 5839 5831 5825 5820 5813 5805 5798 5790 5781 5769 5757 5746 5733 5721 5713 5706 5698 5691 5685 5679 5673
5886 5886 5885 5887 5890 5892 5891 5892 5893 5892 5891 5888 5886 5883 5876 5872 5870 5868 5863 5860 5858 5850 5842 5834 5829 5825 5818 5812 5803 5796 5786 5776 5765 5753 5738 5724 5715 5707 5699 5691 5683 5675 5668 5662
5882 5884 5885 5887 5888 5889 5888 5888 5889 5890 5887 5884 5881 5878 5873 5871 5868 5865 5860 5858 5851 5845 5839 5832 5828 5821 5815 5808 5801 5794 5784 5773 5762 5747 5733 5721 5711 5701 5692 5684 5676 5668 5660 5652
5880 5882 5882 5885 5886 5887 5887 5886 5887 5885 5882 5879 5876 5873 5870 5866 5864 5861 5858 5851 5846 5839 5833 5828 5823 5817 5812 5805 5798 5790 5781 5769 5757 5742 5730 5719 5707 5696 5687 5677 5667 5659 5652 5645
5877 5879 5881 5882 5884 5886 5884 5882 5884 5883 5880 5876 5874 5871 5867 5862 5858 5855 5850 5844 5839 5835 5831 5826 5822 5816 5811 5804 5796 5787 5777 5765 5751 5738 5726 5714 5702 5690 5680 5670 5660 5652 5644 5637
5875 5877 5879 5881 5880 5881 5880 5880 5882 5881 5877 5874 5869 5865 5863 5859 5855 5852 5847 5842 5837 5833 5829 5825 5821 5816 5809 5801 5792 5783 5772 5760 5747 5735 5723 5711 5700 5688 5677 5667 5657 5648 5640 5633
5873 5877 5877 5877 5877 5878 5877 5877 5879 5878 5876 5871 5867 5862 5860 5858 5854 5851 5846 5842 5838 5833 5827 5823 5817 5812 5805 5798 5790 5779 5768 5757 5744 5732 5722 5711 5700 5689 5678 5668 5657 5648 5639 5630
5872 5873 5874 5873 5873 5873 5873 5874 5874 5875 5873 5868 5864 5860 5858 5855 5852 5848 5844 5838 5834 5828 5824 5820 5815 5809 5803 5794 5785 5776 5766 5754 5743 5732 5721 5711 5700 5688 5677 5666 5656 5646 5638 5629
5870 5871 5871 5871 5870 5870 5871 5871 5871 5872 5869 5866 5863 5860 5856 5854 5852 5846 5841 5835 5830 5825 5822 5818 5813 5807 5800 5791 5782 5773 5764 5753 5741 5731 5721 5711 5700 5688 5676 5665 5654 5644 5636 5628
5865 5867 5869 5868 5868 5866 5867 5868 5869 5870 5866 5864 5862 5858 5856 5852 5848 5843 5837 5833 5829 5824 5821 5817 5812 5805 5797 5789 5780 5771 5762 5751 5740 5731 5721 5711 5701 5690 5678 5667 5656 5645 5637 5629
5862 5863 5866 5864 5864 5862 5863 5863 5865 5866 5863 5862 5860 5856 5853 5849 5844 5839 5836 5832 5827 5823 5819 5814 5809 5802 5794 5786 5778 5771 5761 5751 5741 5731 5721 5712 5702 5692 5680 5670 5659 5649 5640 5632
5859 5860 5862 5860 5860 5859 5861 5860 5860 5860 5857 5857 5856 5854 5849 5846 5843 5838 5833 5828 5823 5820 5816 5812 5806 5799 5792 5785 5777 5769 5760 5750 5741 5731 5721 5712 5703 5694 5684 5673 5664 5654 5645 5637
5856 5857 5858 5857 5857 5858 5859 5861 5856 5856 5855 5854 5854 5851 5847 5844 5839 5833 5829 5826 5822 5818 5815 5810 5805 5799 5792 5784 5777 5769 5760 5751 5740 5731 5722 5713 5704 5695 5687 5677 5668 5660 5652 5644
5854 5855 5855 5854 5856 5856 5855 5858 5856 5853 5850 5850 5849 5847 5844 5840 5836 5833 5829 5824 5821 5817 5814 5810 5804 5798 5791 5783 5776 5768 5760 5751 5741 5732 5723 5714 5706 5697 5689 5681 5673 5665 5657 5650
5850 5852 5852 5852 5853 5853 5851 5853 5853 5851 5850 5850 5849 5846 5842 5840 5836 5832 5827 5823 5820 5816 5812 5808 5802 5796 5789 5782 5775 5767 5759 5751 5743 5734 5725 5716 5708 5699 5692 5685 5677 5669 5662 5655
5846 5848 5849 5849 5849 5849 5850 5848 5849 5848 5848 5846 5845 5843 5841 5838 5834 5829 5825 5820 5817 5814 5809 5805 5800 5794 5787 5781 5774 5766 5759 5752 5744 5735 5727 5718 5709 5701 5694 5688 5680 5673 5666 5659
5844 5845 5845 5844 5845 5846 5846 5847 5847 5847 5849 5843 5840 5838 5837 5833 5830 5826 5822 5818 5814 5811 5807 5803 5798 5793 5786 5779 5773 5766 5759 5752 5744 5737 5728 5719 5710 5703 5696 5689 5683 5676 5670 5663
5840 5842 5842 5842 5842 5844 5844 5842 5844 5844 5843 5841 5838 5835 5832 5829 5826 5823 5819 5815 5811 5807 5804 5800 5796 5791 5785 5778 5772 5765 5758 5752 5745 5738 5730 5722 5713 5705 5697 5691 5685 5679 5674 5668
5837 5838 5839 5840 5840 5840 5841 5840 5840 5840 5839 5838 5837 5833 5830 5827 5824 5820 5817 5813 5809 5805 5802 5798 5793 5787 5783 5776 5770 5764 5759 5752 5747 5740 5732 5724 5716 5707 5699 5693 5688 5683 5678 5672
5833 5835 5835 5836 5836 5836 5836 5837 5837 5837 5836 5835 5834 5831 5828 5825 5821 5818 5814 5811 5807 5802 5799 5795 5790 5784 5780 5774 5769 5764 5758 5752 5747 5740 5733 5726 5719 5711 5702 5695 5691 5686 5681 5676
5830 5831 5831 5832 5832 5832 5833 5833 5833 5833 5832 5831 5830 5828 5824 5822 5818 5815 5812 5809 5804 5800 5796 5792 5788 5783 5778 5773 5768 5763 5757 5752 5746 5741 5734 5728 5722 5714 5707 5700 5694 5689 5685 5680
5825 5828 5827 5827 5828 5829 5830 5830 5830 5831 5829 5828 5826 5824 5822 5819 5816 5813 5810 5807 5803 5798 5793 5789 5785 5781 5776 5771 5767 5762 5757 5752 5746 5740 5735 5730 5724 5718 5711 5704 5698 5693 5688 5684
Wind_Speed
14 13 16 13 10 8 11 11 15 16 17 14 23 27 34 21 18 21 11 18 29 23 29 43 42 42 40 40 42 40 36 32 31 34 38 39 37 36 38 45 50 53 51 49
13 16 16 10 5 8 9 10 13 18 20 23 25 30 23 23 23 21 17 23 31 28 30 40 42 42 46 43 33 29 37 38 42 43 48 51 50 49 47 45 42 39 42 47
18 16 14 14 8 7 3 12 10 13 17 23 22 29 26 26 26 25 24 35 26 33 40 45 39 50 43 32 33 37 41 45 48 53 55 57 59 56 50 41 40 39 38 36
19 17 14 9 5 7 16 14 13 18 21 21 25 28 30 29 28 29 34 23 34 38 43 43 48 39 31 34 36 39 44 47 51 55 60 62 62 54 41 37 37 39 39 36
18 22 20 8 7 11 16 8 17 22 16 20 14 24 26 29 28 29 32 36 42 42 41 45 34 29 33 34 39 40 44 49 55 61 64 63 54 41 41 42 42 40 39 39
19 15 12 12 7 10 13 12 11 13 16 16 18 22 25 22 29 30 27 39 40 39 43 38 25 28 33 36 38 42 47 53 58 62 63 56 44 43 42 43 43 43 40 37
18 4 1 3 6 13 15 12 16 16 10 11 15 19 20 26 30 30 34 39 40 39 40 28 28 32 36 36 39 43 48 53 59 61 56 47 44 43 46 46 44 41 38 37
14 12 7 4 8 9 14 16 10 6 11 17 18 20 27 29 28 33 34 37 39 41 38 31 35 35 37 38 41 44 48 53 59 56 47 47 47 47 46 48 45 39 36 33
19 14 7 11 8 10 12 17 12 11 16 19 21 23 26 32 32 33 35 40 41 41 33 32 33 34 36 37 41 44 49 54 58 50 49 52 49 45 43 41 38 35 33 30
14 9 9 13 15 16 15 17 12 10 16 22 25 29 32 30 31 33 37 40 40 40 31 31 30 31 34 39 43 45 50 55 55 51 47 44 43 41 39 38 35 33 30 28
19 16 15 17 20 16 16 16 12 12 12 19 26 32 28 25 29 32 35 35 35 31 28 28 29 31 36 39 42 44 49 54 53 44 42 42 42 43 42 39 36 32 31 29
19 20 22 22 17 15 13 13 14 15 18 21 27 30 27 26 29 30 31 33 34 29 26 27 30 32 36 38 41 43 48 52 50 40 42 44 44 46 44 43 39 35 31 30
22 25 23 24 23 26 23 20 15 11 16 22 21 23 23 22 23 26 28 33 32 29 25 27 28 32 35 36 38 41 46 48 47 39 40 43 44 46 45 44 43 38 32 33
22 27 30 32 30 31 25 21 15 16 17 18 15 16 17 19 22 25 30 33 32 23 25 26 28 30 34 35 37 40 43 46 45 41 40 43 45 46 45 44 44 40 34 31
19 19 29 36 34 36 28 22 18 16 15 13 12 13 16 18 22 25 29 30 23 20 22 23 26 29 33 35 37 39 41 43 43 40 39 42 44 47 46 43 43 41 35 33
14 16 20 30 35 33 21 18 17 18 15 13 13 13 16 18 20 25 27 29 20 21 23 23 24 29 33 34 36 38 38 39 41 40 38 39 41 44 45 41 40 40 38 35
13 14 19 26 26 24 23 14 18 12 11 15 14 14 16 17 20 26 27 23 18 20 21 21 25 29 32 35 36 38 37 37 38 38 38 37 38 39 42 41 38 36 35 35
17 15 17 19 19 21 19 11 10 11 10 16 15 16 17 18 21 24 24 18 15 19 18 21 26 28 32 34 36 37 35 36 37 37 37 36 36 36 38 39 36 34 33 33
19 19 15 15 14 14 16 10 9 6 7 14 15 14 16 16 19 21 23 16 13 18 19 21 23 28 31 32 35 36 34 34 36 37 37 36 36 35 34 36 36 34 32 31
17 15 13 13 14 15 10 11 7 8 8 16 15 13 15 15 17 19 21 17 13 17 19 18 22 27 32 30 32 34 32 33 35 37 38 37 37 35 31 31 33 33 33 32
17 12 14 15 13 18 12 13 10 11 11 12 16 16 16 16 17 19 20 19 13 16 18 20 23 27 30 29 30 32 32 31 33 35 38 38 38 36 34 29 28 31 32 33
22 19 19 20 20 17 13 14 11 12 11 12 14 15 17 18 18 19 20 21 16 17 19 22 24 27 28 28 28 30 29 31 31 33 37 40 40 39 36 29 24 28 29 30
19 18 16 16 16 12 12 12 11 12 12 12 13 13 16 16 18 18 19 20 20 19 21 22 24 27 27 28 28 27 28 30 31 32 35 38 40 42 40 25 21 23 26 28
18 18 15 16 17 14 12 13 11 11 11 12 13 12 14 15 16 18 18 20 20 18 19 21 23 24 25 24 25 25 26 27 29 30 33 35 38 39 38 22 21 19 22 24
17 14 17 19 15 15 13 12 11 11 12 12 12 12 14 15 16 18 18 19 20 21 20 20 20 21 21 22 23 23 24 24 25 27 31 33 35 36 34 26 24 23 19 21
16 13 16 17 16 14 13 10 10 10 12 14 12 12 14 15 16 18 18 17 20 23 22 20 19 19 19 20 22 22 22 22 23 25 27 30 30 34 33 30 27 26 24 20
Wind_Direction
206 200 197 179 176 120 98 3 348 319 324 264 346 329 321 316 321 355 298 310 325 322 329 346 337 338 333 327 321 318 317 327 337 337 335 331 330 324 309 291 283 280 278 273
206 211 211 203 185 91 66 343 323 311 311 322 325 314 304 309 326 340 346 322 340 343 326 335 336 336 331 332 340 346 344 345 342 339 335 336 332 326 321 316 309 301 288 276
203 211 213 207 161 104 92 258 278 290 298 305 302 301 305 316 323 333 333 335 348 344 338 337 340 341 341 350 345 344 344 342 340 338 337 334 329 327 325 322 314 308 302 295
195 193 185 195 150 279 210 207 264 270 286 306 298 296 309 321 328 334 338 341 338 339 342 343 344 342 351 348 345 345 344 342 339 338 336 334 329 327 326 326 324 319 310 302
213 217 202 207 242 247 222 207 237 268 287 288 299 307 307 319 319 328 319 335 341 346 340 345 346 350 347 349 346 346 344 341 340 339 335 329 329 327 328 327 327 325 316 308
221 208 203 239 232 232 226 221 248 238 248 261 278 299 303 299 310 330 326 334 339 342 346 347 351 348 342 345 346 345 343 344 340 337 332 332 331 329 330 330 327 323 319 312
216 127 117 269 233 223 232 235 232 247 274 278 285 295 286 303 313 323 326 334 342 343 344 343 340 342 347 347 345 345 345 343 341 337 337 336 332 330 328 325 325 324 320 317
190 177 152 305 256 251 276 271 256 239 257 276 294 296 303 309 309 320 332 336 340 341 343 340 343 344 344 347 347 347 346 344 341 341 342 335 332 328 326 325 322 322 322 320
205 207 198 239 253 271 274 270 274 270 275 274 284 291 295 308 322 338 339 335 338 338 336 334 339 343 342 347 349 349 347 346 346 346 340 338 335 332 331 331 330 329 327 327
203 219 214 243 258 273 270 266 286 277 270 272 286 293 311 321 336 340 334 331 332 332 328 332 338 341 346 350 351 350 350 349 351 348 351 356 357 356 353 350 346 340 339 332
204 204 216 233 251 262 269 271 264 279 299 285 286 299 314 338 335 332 327 326 322 328 327 337 339 343 345 348 351 351 353 353 355 358 2 3 3 2 359 357 354 353 351 346
210 227 233 240 252 260 275 271 289 306 294 286 290 299 321 337 330 324 321 317 328 328 330 339 340 342 344 346 351 354 354 356 358 1 6 4 3 1 360 359 358 357 357 358
221 232 232 234 254 270 274 283 294 273 286 295 298 309 319 329 321 319 316 325 333 326 326 330 335 340 342 346 350 353 354 357 360 360 2 2 1 3 4 3 1 3 3 8
231 235 232 248 259 268 273 279 291 299 293 301 317 319 321 320 320 319 323 333 331 327 322 325 335 339 343 347 349 353 354 357 2 359 358 3 5 4 6 8 7 9 11 9
233 234 233 241 255 268 274 283 292 292 294 307 311 319 322 323 326 322 325 330 333 330 329 333 337 341 348 349 348 351 354 358 2 1 360 1 4 6 8 11 13 14 15 14
242 236 236 244 250 260 275 285 303 304 311 314 318 327 325 329 321 318 332 335 338 335 334 331 337 344 347 350 348 350 355 358 2 2 359 359 0 7 9 12 15 18 21 21
236 247 244 244 254 263 269 285 283 295 307 311 325 328 329 332 324 329 333 335 333 335 334 332 338 344 346 348 348 350 355 356 360 3 1 358 359 7 7 12 15 19 22 26
232 254 248 245 256 258 267 265 284 293 322 313 329 333 333 335 327 326 329 330 332 328 327 328 335 345 348 349 349 350 355 357 358 1 2 2 359 5 6 11 15 18 24 27
229 242 249 256 261 268 282 284 283 314 322 300 312 327 328 331 320 325 332 325 317 325 330 330 337 348 351 351 351 352 354 359 357 359 360 2 2 5 7 11 15 20 24 27
234 245 250 261 267 273 281 280 298 313 294 306 315 323 331 327 328 330 332 327 307 323 333 335 341 349 350 353 351 353 355 359 358 358 358 3 6 4 5 14 16 18 21 24
230 242 246 260 260 271 275 259 286 294 299 307 313 324 332 336 335 330 332 333 307 317 327 333 341 346 349 351 351 356 355 358 358 357 358 1 4 6 4 11 18 21 21 25
239 255 258 260 269 270 282 284 298 293 307 307 308 323 330 340 333 331 334 335 319 311 322 331 333 341 346 348 351 358 355 358 358 359 358 1 3 8 7 9 20 21 23 26
228 244 246 253 268 272 262 267 274 290 299 303 308 320 330 333 330 329 332 332 334 321 321 329 331 337 343 346 350 356 356 357 360 1 359 3 4 6 9 16 21 24 22 23
234 241 259 259 254 256 259 256 272 285 292 301 308 317 327 330 328 329 330 333 338 336 330 330 333 336 342 346 347 353 354 359 1 1 1 2 5 8 13 22 19 19 21 22
244 258 255 254 250 250 253 262 277 287 292 299 305 319 327 333 329 328 331 332 333 334 333 334 335 337 345 346 347 352 357 358 3 5 3 2 4 8 14 17 14 10 12 16
247 250 251 252 246 243 247 260 273 281 290 294 303 316 325 331 331 326 329 332 332 334 335 335 336 338 346 345 347 353 356 356 2 5 4 3 4 5 8 12 11 10 10 7